Year,Month,Day,Hour,Minute,Value (Times are PST for temperature in C)
2009,07,01,06,42,8.30
2009,07,01,06,43,8.30
2009,07,01,06,44,8.30
2009,07,01,06,45,8.30
2009,07,01,06,46,8.30
2009,07,01,06,47,8.30
2009,07,01,06,48,8.30
2009,07,01,06,49,8.30
2009,07,01,06,50,8.30
2009,07,01,06,51,8.30
2009,07,01,06,52,8.30
2009,07,01,07,08,9.70
2009,07,01,07,09,9.70
2009,07,01,07,10,9.80
2009,07,01,07,11,9.80
2009,07,01,07,12,9.90
2009,07,01,07,13,10.00
2009,07,01,07,14,10.20
2009,07,01,07,15,10.30
2009,07,01,07,16,10.40
2009,07,01,07,17,10.50
2009,07,01,07,18,10.50
2009,07,01,07,19,10.60
2009,07,01,07,20,10.70
2009,07,01,07,21,10.70
2009,07,01,07,22,10.80
2009,07,01,07,23,10.80
2009,07,01,07,24,10.90
2009,07,01,07,25,11.10
2009,07,01,07,26,11.20
2009,07,01,07,27,11.40
2009,07,01,07,28,11.60
2009,07,01,07,29,11.70
2009,07,01,07,30,11.90
2009,07,01,07,31,12.00
2009,07,01,07,32,12.10
2009,07,01,07,33,12.20
2009,07,01,07,34,12.30
2009,07,01,07,35,12.30
2009,07,01,07,36,12.40
2009,07,01,07,37,12.50
2009,07,01,07,38,12.50
2009,07,01,07,39,12.70
2009,07,01,07,40,12.80
2009,07,01,07,41,13.00
2009,07,01,07,42,13.20
2009,07,01,07,43,13.40
2009,07,01,07,44,13.50
2009,07,01,07,45,13.60
2009,07,01,07,46,13.70
2009,07,01,07,47,13.80
2009,07,01,07,48,13.90
2009,07,01,07,49,14.10
2009,07,01,07,50,14.20
2009,07,01,07,51,14.30
2009,07,01,07,52,14.50
2009,07,01,07,53,14.70
2009,07,01,07,54,14.90
2009,07,01,07,55,15.00
2009,07,01,07,56,15.00
2009,07,01,07,57,15.10
2009,07,01,07,58,15.20
2009,07,01,07,59,15.20
2009,07,01,08,00,15.30
2009,07,01,08,01,15.30
2009,07,01,08,02,15.20
2009,07,01,08,03,15.20
2009,07,01,08,04,15.20
2009,07,01,08,05,15.20
2009,07,01,08,06,15.20
2009,07,01,08,07,15.20
2009,07,01,08,08,15.20
2009,07,01,08,09,15.30
2009,07,01,08,10,15.30
2009,07,01,08,11,15.30
2009,07,01,08,12,15.40
2009,07,01,08,13,15.50
2009,07,01,08,14,15.60
2009,07,01,08,15,15.70
2009,07,01,08,16,15.80
2009,07,01,08,17,15.90
2009,07,01,08,18,16.00
2009,07,01,08,19,16.20
2009,07,01,08,20,16.30
2009,07,01,08,21,16.40
2009,07,01,08,22,16.50
2009,07,01,08,23,16.70
2009,07,01,08,24,16.80
2009,07,01,08,25,17.00
2009,07,01,08,26,17.10
2009,07,01,08,27,17.10
2009,07,01,08,28,17.10
2009,07,01,08,29,17.10
2009,07,01,08,30,17.10
2009,07,01,08,31,17.10
2009,07,01,08,32,17.20
2009,07,01,08,33,17.20
2009,07,01,08,34,17.30
2009,07,01,08,35,17.40
2009,07,01,08,36,17.40
2009,07,01,08,37,17.40
2009,07,01,08,38,17.40
2009,07,01,08,39,17.50
2009,07,01,08,40,17.50
2009,07,01,08,41,17.60
2009,07,01,08,42,17.70
2009,07,01,08,43,17.70
2009,07,01,08,44,17.70
2009,07,01,08,45,17.60
2009,07,01,08,46,17.50
2009,07,01,08,47,17.40
2009,07,01,08,48,17.40
2009,07,01,08,49,17.30
2009,07,01,08,50,17.30
2009,07,01,08,51,17.30
2009,07,01,08,52,17.30
2009,07,01,08,53,17.30
2009,07,01,08,54,17.30
2009,07,01,08,55,17.10
2009,07,01,08,56,17.00
2009,07,01,08,57,17.00
2009,07,01,08,58,17.00
2009,07,01,08,59,17.00
2009,07,01,09,00,16.90
2009,07,01,09,01,16.80
2009,07,01,09,02,16.80
2009,07,01,09,03,16.90
2009,07,01,09,04,16.90
2009,07,01,09,05,17.00
2009,07,01,09,06,17.00
2009,07,01,09,07,17.10
2009,07,01,09,08,17.10
2009,07,01,09,09,17.10
2009,07,01,09,10,17.20
2009,07,01,09,11,17.20
2009,07,01,09,12,17.30
2009,07,01,09,13,17.30
2009,07,01,09,14,17.30
2009,07,01,09,15,17.40
2009,07,01,09,16,17.40
2009,07,01,09,17,17.50
2009,07,01,09,18,17.50
2009,07,01,09,19,17.50
2009,07,01,09,20,17.60
2009,07,01,09,21,17.60
2009,07,01,09,22,17.70
2009,07,01,09,23,17.70
2009,07,01,09,24,17.80
2009,07,01,09,25,17.80
2009,07,01,09,26,17.80
2009,07,01,09,27,17.80
2009,07,01,09,28,17.80
2009,07,01,09,29,17.80
2009,07,01,09,30,17.80
2009,07,01,09,31,17.80
2009,07,01,09,32,17.80
2009,07,01,09,33,17.90
2009,07,01,09,34,17.90
2009,07,01,09,35,17.90
2009,07,01,09,36,17.90
2009,07,01,09,37,17.90
2009,07,01,09,38,17.90
2009,07,01,09,39,17.90
2009,07,01,09,40,17.80
2009,07,01,09,41,17.80
2009,07,01,09,42,17.70
2009,07,01,09,43,17.60
2009,07,01,09,44,17.60
2009,07,01,09,45,17.60
2009,07,01,09,46,17.60
2009,07,01,09,47,17.60
2009,07,01,09,48,17.60
2009,07,01,09,49,17.60
2009,07,01,09,50,17.60
2009,07,01,09,51,17.70
2009,07,01,09,52,17.70
2009,07,01,09,53,17.80
2009,07,01,09,54,17.80
2009,07,01,09,55,17.90
2009,07,01,09,56,17.90
2009,07,01,09,57,18.00
2009,07,01,09,58,18.00
2009,07,01,09,59,18.10
2009,07,01,10,00,18.20
2009,07,01,10,01,18.30
2009,07,01,10,02,18.30
2009,07,01,10,03,18.30
2009,07,01,10,04,18.30
2009,07,01,10,05,18.30
2009,07,01,10,06,18.30
2009,07,01,10,07,18.30
2009,07,01,10,08,18.20
2009,07,01,10,09,18.20
2009,07,01,10,10,18.30
2009,07,01,10,11,18.30
2009,07,01,10,12,18.30
2009,07,01,10,13,18.30
2009,07,01,10,14,18.40
2009,07,01,10,15,18.40
2009,07,01,10,16,18.30
2009,07,01,10,17,18.30
2009,07,01,10,18,18.20
2009,07,01,10,19,18.20
2009,07,01,10,20,18.20
2009,07,01,10,21,18.20
2009,07,01,10,22,18.20
2009,07,01,10,23,18.20
2009,07,01,10,24,18.20
2009,07,01,10,25,18.20
2009,07,01,10,26,18.30
2009,07,01,10,27,18.40
2009,07,01,10,28,18.40
2009,07,01,10,29,18.40
2009,07,01,10,30,18.50
2009,07,01,10,31,18.50
2009,07,01,10,32,18.50
2009,07,01,10,33,18.50
2009,07,01,10,34,18.50
2009,07,01,10,35,18.50
2009,07,01,10,36,18.50
2009,07,01,10,37,18.50
2009,07,01,10,38,18.50
2009,07,01,10,39,18.60
2009,07,01,10,40,18.70
2009,07,01,10,41,18.70
2009,07,01,10,42,18.80
2009,07,01,10,43,18.90
2009,07,01,10,44,18.90
2009,07,01,10,45,19.00
2009,07,01,10,46,19.00
2009,07,01,10,47,19.00
2009,07,01,10,48,18.90
2009,07,01,10,49,19.00
2009,07,01,10,50,19.00
2009,07,01,10,51,19.00
2009,07,01,10,52,19.00
2009,07,01,10,53,19.00
2009,07,01,10,54,19.10
2009,07,01,10,55,19.00
2009,07,01,10,56,19.00
2009,07,01,10,57,19.00
2009,07,01,10,58,19.10
2009,07,01,10,59,19.00
2009,07,01,11,00,19.00
2009,07,01,11,01,19.00
2009,07,01,11,02,19.00
2009,07,01,11,03,19.10
2009,07,01,11,04,19.10
2009,07,01,11,05,19.10
2009,07,01,11,06,19.10
2009,07,01,11,07,19.20
2009,07,01,11,08,19.30
2009,07,01,11,09,19.40
2009,07,01,11,10,19.60
2009,07,01,11,11,19.70
2009,07,01,11,12,19.80
2009,07,01,11,13,19.80
2009,07,01,11,14,19.70
2009,07,01,11,15,19.50
2009,07,01,11,16,19.40
2009,07,01,11,17,19.40
2009,07,01,11,18,19.50
2009,07,01,11,19,19.50
2009,07,01,11,20,19.60
2009,07,01,11,21,19.60
2009,07,01,11,22,19.70
2009,07,01,11,23,19.70
2009,07,01,11,24,19.70
2009,07,01,11,25,19.60
2009,07,01,11,26,19.50
2009,07,01,11,27,19.50
2009,07,01,11,28,19.40
2009,07,01,11,29,19.30
2009,07,01,11,30,19.30
2009,07,01,11,31,19.20
2009,07,01,11,32,19.20
2009,07,01,11,33,19.20
2009,07,01,11,34,19.30
2009,07,01,11,35,19.40
2009,07,01,11,36,19.40
2009,07,01,11,37,19.40
2009,07,01,11,38,19.40
2009,07,01,11,39,19.40
2009,07,01,11,40,19.40
2009,07,01,11,41,19.30
2009,07,01,11,42,19.30
2009,07,01,11,43,19.30
2009,07,01,11,44,19.30
2009,07,01,11,45,19.30
2009,07,01,11,46,19.40
2009,07,01,11,47,19.40
2009,07,01,11,48,19.40
2009,07,01,11,49,19.50
2009,07,01,11,50,19.60
2009,07,01,11,51,19.60
2009,07,01,11,52,19.50
2009,07,01,11,53,19.40
2009,07,01,11,54,19.40
2009,07,01,11,55,19.40
2009,07,01,11,56,19.30
2009,07,01,11,57,19.20
2009,07,01,11,58,19.20
2009,07,01,11,59,19.10
2009,07,01,12,00,19.10
2009,07,01,12,01,19.10
2009,07,01,12,02,19.10
2009,07,01,12,03,19.10
2009,07,01,12,04,19.10
2009,07,01,12,05,19.20
2009,07,01,12,06,19.20
2009,07,01,12,07,19.20
2009,07,01,12,08,19.30
2009,07,01,12,09,19.40
2009,07,01,12,10,19.40
2009,07,01,12,11,19.50
2009,07,01,12,12,19.50
2009,07,01,12,13,19.40
2009,07,01,12,14,19.30
2009,07,01,12,15,19.30
2009,07,01,12,16,19.30
2009,07,01,12,17,19.40
2009,07,01,12,18,19.40
2009,07,01,12,19,19.40
2009,07,01,12,20,19.20
2009,07,01,12,21,19.10
2009,07,01,12,22,19.10
2009,07,01,12,23,19.10
2009,07,01,12,24,19.20
2009,07,01,12,25,19.20
2009,07,01,12,26,19.20
2009,07,01,12,27,19.20
2009,07,01,12,28,19.20
2009,07,01,12,29,19.20
2009,07,01,12,30,19.30
2009,07,01,12,31,19.40
2009,07,01,12,32,19.40
2009,07,01,12,33,19.50
2009,07,01,12,34,19.60
2009,07,01,12,35,19.60
2009,07,01,12,36,19.60
2009,07,01,12,37,19.60
2009,07,01,12,38,19.50
2009,07,01,12,39,19.50
2009,07,01,12,40,19.40
2009,07,01,12,41,19.40
2009,07,01,12,42,19.40
2009,07,01,12,43,19.50
2009,07,01,12,44,19.60
2009,07,01,12,45,19.60
2009,07,01,12,46,19.60
2009,07,01,12,47,19.70
2009,07,01,12,48,19.80
2009,07,01,12,49,19.90
2009,07,01,12,50,20.00
2009,07,01,12,51,20.00
2009,07,01,12,52,20.10
2009,07,01,12,53,20.20
2009,07,01,12,54,20.30
2009,07,01,12,55,20.30
2009,07,01,12,56,20.30
2009,07,01,12,57,20.30
2009,07,01,12,58,20.30
2009,07,01,12,59,20.30
2009,07,01,13,00,20.40
2009,07,01,13,01,20.50
2009,07,01,13,02,20.60
2009,07,01,13,03,20.50
2009,07,01,13,04,20.50
2009,07,01,13,05,20.40
2009,07,01,13,06,20.30
2009,07,01,13,07,20.20
2009,07,01,13,08,20.10
2009,07,01,13,09,20.00
2009,07,01,13,10,20.00
2009,07,01,13,11,20.00
2009,07,01,13,12,20.00
2009,07,01,13,13,19.90
2009,07,01,13,14,20.00
2009,07,01,13,15,20.00
2009,07,01,13,16,20.00
2009,07,01,13,17,20.00
2009,07,01,13,18,20.00
2009,07,01,13,19,20.00
2009,07,01,13,20,20.20
2009,07,01,13,21,20.30
2009,07,01,13,22,20.40
2009,07,01,13,23,20.40
2009,07,01,13,24,20.40
2009,07,01,13,25,20.40
2009,07,01,13,26,20.50
2009,07,01,13,27,20.50
2009,07,01,13,28,20.50
2009,07,01,13,29,20.50
2009,07,01,13,30,20.50
2009,07,01,13,31,20.60
2009,07,01,13,32,20.60
2009,07,01,13,33,20.50
2009,07,01,13,34,20.60
2009,07,01,13,35,20.70
2009,07,01,13,36,20.70
2009,07,01,13,37,20.80
2009,07,01,13,38,20.90
2009,07,01,13,39,20.90
2009,07,01,13,40,20.90
2009,07,01,13,41,20.90
2009,07,01,13,42,20.80
2009,07,01,13,43,20.80
2009,07,01,13,44,20.80
2009,07,01,13,45,20.80
2009,07,01,13,46,20.90
2009,07,01,13,47,21.00
2009,07,01,13,48,21.10
2009,07,01,13,49,21.10
2009,07,01,13,50,21.20
2009,07,01,13,51,21.20
2009,07,01,13,52,21.20
2009,07,01,13,53,21.20
2009,07,01,13,54,21.20
2009,07,01,13,55,21.20
2009,07,01,13,56,21.20
2009,07,01,13,57,21.20
2009,07,01,13,58,21.30
2009,07,01,13,59,21.20
2009,07,01,14,00,21.20
2009,07,01,14,01,21.20
2009,07,01,14,02,21.30
2009,07,01,14,03,21.40
2009,07,01,14,04,21.40
2009,07,01,14,05,21.40
2009,07,01,14,06,21.40
2009,07,01,14,07,21.40
2009,07,01,14,08,21.50
2009,07,01,14,09,21.40
2009,07,01,14,10,21.50
2009,07,01,14,11,21.50
2009,07,01,14,12,21.40
2009,07,01,14,13,21.50
2009,07,01,14,14,21.60
2009,07,01,14,15,21.70
2009,07,01,14,16,21.80
2009,07,01,14,17,21.90
2009,07,01,14,18,21.90
2009,07,01,14,19,22.00
2009,07,01,14,20,22.10
2009,07,01,14,21,22.20
2009,07,01,14,22,22.20
2009,07,01,14,23,22.30
2009,07,01,14,24,22.30
2009,07,01,14,25,22.30
2009,07,01,14,26,22.20
2009,07,01,14,27,22.10
2009,07,01,14,28,22.00
2009,07,01,14,29,21.90
2009,07,01,14,30,22.00
2009,07,01,14,31,22.00
2009,07,01,14,32,22.10
2009,07,01,14,33,22.20
2009,07,01,14,34,22.30
2009,07,01,14,35,22.30
2009,07,01,14,36,22.30
2009,07,01,14,37,22.40
2009,07,01,14,38,22.40
2009,07,01,14,39,22.30
2009,07,01,14,40,22.30
2009,07,01,14,41,22.30
2009,07,01,14,42,22.40
2009,07,01,14,43,22.40
2009,07,01,14,44,22.50
2009,07,01,14,45,22.60
2009,07,01,14,46,22.70
2009,07,01,14,47,22.70
2009,07,01,14,48,22.70
2009,07,01,14,49,22.70
2009,07,01,14,50,22.60
2009,07,01,14,51,22.60
2009,07,01,14,52,22.50
2009,07,01,14,53,22.40
2009,07,01,14,54,22.30
2009,07,01,14,55,22.30
2009,07,01,14,56,22.30
2009,07,01,14,57,22.30
2009,07,01,14,58,22.40
2009,07,01,14,59,22.50
2009,07,01,15,00,22.50
2009,07,01,15,01,22.60
2009,07,01,15,02,22.60
2009,07,01,15,03,22.70
2009,07,01,15,04,22.80
2009,07,01,15,05,22.80
2009,07,01,15,06,22.90
2009,07,01,15,07,22.90
2009,07,01,15,08,22.90
2009,07,01,15,09,23.00
2009,07,01,15,10,23.10
2009,07,01,15,11,22.90
2009,07,01,15,12,22.80
2009,07,01,15,13,22.70
2009,07,01,15,14,22.70
2009,07,01,15,15,22.70
2009,07,01,15,16,22.70
2009,07,01,15,17,22.60
2009,07,01,15,18,22.60
2009,07,01,15,19,22.70
2009,07,01,15,20,22.80
2009,07,01,15,21,22.80
2009,07,01,15,22,22.80
2009,07,01,15,23,22.80
2009,07,01,15,24,22.70
2009,07,01,15,25,22.70
2009,07,01,15,26,22.80
2009,07,01,15,27,22.70
2009,07,01,15,28,22.70
2009,07,01,15,29,22.70
2009,07,01,15,30,22.80
2009,07,01,15,31,22.80
2009,07,01,15,32,22.90
2009,07,01,15,33,23.00
2009,07,01,15,34,23.00
2009,07,01,15,35,23.10
2009,07,01,15,36,23.20
2009,07,01,15,37,23.20
2009,07,01,15,38,23.20
2009,07,01,15,39,23.10
2009,07,01,15,40,23.10
2009,07,01,15,41,23.20
2009,07,01,15,42,23.30
2009,07,01,15,43,23.40
2009,07,01,15,44,23.40
2009,07,01,15,45,23.60
2009,07,01,15,46,23.70
2009,07,01,15,47,23.70
2009,07,01,15,48,23.60
2009,07,01,15,49,23.50
2009,07,01,15,50,23.40
2009,07,01,15,51,23.30
2009,07,01,15,52,23.30
2009,07,01,15,53,23.20
2009,07,01,15,54,23.10
2009,07,01,15,55,22.90
2009,07,01,15,56,22.90
2009,07,01,15,57,23.00
2009,07,01,15,58,23.10
2009,07,01,15,59,23.30
2009,07,01,16,00,23.40
2009,07,01,16,01,23.50
2009,07,01,16,02,23.60
2009,07,01,16,03,23.60
2009,07,01,16,04,23.60
2009,07,01,16,05,23.50
2009,07,01,16,06,23.40
2009,07,01,16,07,23.40
2009,07,01,16,08,23.30
2009,07,01,16,09,23.20
2009,07,01,16,10,23.20
2009,07,01,16,11,23.20
2009,07,01,16,12,23.40
2009,07,01,16,13,23.40
2009,07,01,16,14,23.20
2009,07,01,16,15,23.00
2009,07,01,16,16,22.80
2009,07,01,16,17,22.80
2009,07,01,16,18,22.80
2009,07,01,16,19,22.90
2009,07,01,16,20,22.90
2009,07,01,16,21,23.00
2009,07,01,16,22,23.10
2009,07,01,16,23,23.10
2009,07,01,16,24,23.00
2009,07,01,16,25,22.90
2009,07,01,16,26,22.90
2009,07,01,16,27,22.70
2009,07,01,16,28,22.60
2009,07,01,16,29,22.70
2009,07,01,16,30,22.70
2009,07,01,16,31,22.80
2009,07,01,16,32,22.80
2009,07,01,16,33,22.70
2009,07,01,16,34,22.70
2009,07,01,16,35,22.80
2009,07,01,16,36,22.90
2009,07,01,16,37,22.90
2009,07,01,16,38,22.80
2009,07,01,16,39,22.80
2009,07,01,16,40,22.70
2009,07,01,16,41,22.60
2009,07,01,16,42,22.60
2009,07,01,16,43,22.60
2009,07,01,16,44,22.80
2009,07,01,16,45,22.90
2009,07,01,16,46,22.90
2009,07,01,16,47,22.90
2009,07,01,16,48,22.90
2009,07,01,16,49,22.90
2009,07,01,16,50,22.90
2009,07,01,16,51,23.00
2009,07,01,16,52,23.20
2009,07,01,16,53,23.30
2009,07,01,16,54,23.40
2009,07,01,16,55,23.40
2009,07,01,16,56,23.50
2009,07,01,16,57,23.70
2009,07,01,16,58,23.80
2009,07,01,16,59,23.80
2009,07,01,17,00,23.70
2009,07,01,17,01,23.60
2009,07,01,17,02,23.70
2009,07,01,17,03,23.70
2009,07,01,17,04,23.70
2009,07,01,17,05,23.80
2009,07,01,17,06,23.80
2009,07,01,17,07,23.90
2009,07,01,17,08,23.90
2009,07,01,17,09,23.90
2009,07,01,17,10,23.80
2009,07,01,17,11,23.70
2009,07,01,17,12,23.70
2009,07,01,17,13,23.70
2009,07,01,17,14,23.70
2009,07,01,17,15,23.80
2009,07,01,17,16,23.80
2009,07,01,17,17,23.90
2009,07,01,17,18,24.10
2009,07,01,17,19,24.20
2009,07,01,17,20,24.30
2009,07,01,17,21,24.30
2009,07,01,17,22,24.30
2009,07,01,17,23,24.30
2009,07,01,17,24,24.40
2009,07,01,17,25,24.30
2009,07,01,17,26,24.30
2009,07,01,17,27,24.30
2009,07,01,17,28,24.40
2009,07,01,17,29,24.50
2009,07,01,17,30,24.50
2009,07,01,17,31,24.20
2009,07,01,17,32,24.00
2009,07,01,17,33,23.80
2009,07,01,17,34,23.70
2009,07,01,17,35,23.60
2009,07,01,17,36,23.50
2009,07,01,17,37,23.40
2009,07,01,17,38,23.20
2009,07,01,17,39,23.10
2009,07,01,17,40,23.00
2009,07,01,17,41,23.00
2009,07,01,17,42,23.10
2009,07,01,17,43,23.10
2009,07,01,17,44,23.10
2009,07,01,17,45,23.10
2009,07,01,17,46,23.10
2009,07,01,17,47,23.10
2009,07,01,17,48,23.10
2009,07,01,17,49,23.10
2009,07,01,17,50,23.10
2009,07,01,17,51,23.10
2009,07,01,17,52,23.10
2009,07,01,17,53,23.00
2009,07,01,17,54,22.90
2009,07,01,17,55,22.80
2009,07,01,17,56,22.70
2009,07,01,17,57,22.60
2009,07,01,17,58,22.60
2009,07,01,17,59,22.50
2009,07,01,18,00,22.50
2009,07,01,18,01,22.60
2009,07,01,18,02,22.50
2009,07,01,18,03,22.50
2009,07,01,18,04,22.60
2009,07,01,18,05,22.60
2009,07,01,18,06,22.50
2009,07,01,18,07,22.40
2009,07,01,18,08,22.20
2009,07,01,18,09,22.20
2009,07,01,18,10,22.20
2009,07,01,18,11,22.30
2009,07,01,18,12,22.50
2009,07,01,18,13,22.60
2009,07,01,18,14,22.70
2009,07,01,18,15,22.60
2009,07,01,18,16,22.60
2009,07,01,18,17,22.60
2009,07,01,18,18,22.60
2009,07,01,18,19,22.60
2009,07,01,18,20,22.60
2009,07,01,18,21,22.70
2009,07,01,18,22,22.80
2009,07,01,18,23,22.70
2009,07,01,18,24,22.70
2009,07,01,18,25,22.70
2009,07,01,18,26,22.60
2009,07,01,18,27,22.60
2009,07,01,18,28,22.50
2009,07,01,18,29,22.50
2009,07,01,18,30,22.60
2009,07,01,18,31,22.70
2009,07,01,18,32,22.80
2009,07,01,18,33,22.90
2009,07,01,18,34,22.80
2009,07,01,18,35,22.80
2009,07,01,18,36,22.70
2009,07,01,18,37,22.70
2009,07,01,18,38,22.60
2009,07,01,18,39,22.60
2009,07,01,18,40,22.70
2009,07,01,18,41,22.70
2009,07,01,18,42,22.70
2009,07,01,18,43,22.60
2009,07,01,18,44,22.60
2009,07,01,18,45,22.50
2009,07,01,18,46,22.40
2009,07,01,18,47,22.40
2009,07,01,18,48,22.30
2009,07,01,18,49,22.30
2009,07,01,18,50,22.30
2009,07,01,18,51,22.30
2009,07,01,18,52,22.30
2009,07,01,18,53,22.30
2009,07,01,18,54,22.30
2009,07,01,18,55,22.40
2009,07,01,18,56,22.40
2009,07,01,18,57,22.40
2009,07,01,18,58,22.40
2009,07,01,18,59,22.40
2009,07,01,19,00,22.40
2009,07,01,19,01,22.50
2009,07,01,19,02,22.60
2009,07,01,19,03,22.60
2009,07,01,19,04,22.60
2009,07,01,19,05,22.50
2009,07,01,19,06,22.50
2009,07,01,19,07,22.50
2009,07,01,19,08,22.50
2009,07,01,19,09,22.50
2009,07,01,19,10,22.40
2009,07,01,19,11,22.40
2009,07,01,19,12,22.40
2009,07,01,19,13,22.50
2009,07,01,19,14,22.50
2009,07,01,19,15,22.60
2009,07,01,19,16,22.60
2009,07,01,19,17,22.70
2009,07,01,19,18,22.70
2009,07,01,19,19,22.60
2009,07,01,19,20,22.60
2009,07,01,19,21,22.40
2009,07,01,19,22,22.40
2009,07,01,19,23,22.30
2009,07,01,19,24,22.30
2009,07,01,19,25,22.30
2009,07,01,19,26,22.20
2009,07,01,19,27,22.20
2009,07,01,19,28,22.20
2009,07,01,19,29,22.20
2009,07,01,19,30,22.20
2009,07,01,19,31,22.20
2009,07,01,19,32,22.10
2009,07,01,19,33,22.10
2009,07,01,19,34,22.10
2009,07,01,19,35,22.10
2009,07,01,19,36,22.10
2009,07,01,19,37,22.10
2009,07,01,19,38,22.10
2009,07,01,19,39,22.10
2009,07,01,19,40,22.10
2009,07,01,19,41,22.10
2009,07,01,19,42,22.10
2009,07,01,19,43,22.10
2009,07,01,19,44,22.10
2009,07,01,19,45,22.10
2009,07,01,19,46,22.10
